Lewistown, MT

10:20 AM MDT on March 28, 2017 (GMT -0600)
Lewistown Municipal

Weather History for KLWT - February, 2013

Change the Weather History Date:

Monday, February 11, 2013

  Actual Average Record
Temperature  
Mean Temperature 18 °F 25 °F  
Max Temperature 35 °F 36 °F 63 °F (2005)
Min Temperature 0 °F 14 °F -33 °F (1905)
Degree Days  
Heating Degree Days 47 40  
Month to date heating degree days 416 443  
Since 1 July heating degree days 4841 5148  
Cooling Degree Days 0 0  
Month to date cooling degree days 0 0  
Year to date cooling degree days 0 0  
Moisture  
Dew Point 8 °F    
Average Humidity 64    
Maximum Humidity 87    
Minimum Humidity 41    
Precipitation  
Precipitation 0.00 in 0.01 in 0.38 in (1926)
Month to date precipitation 0.04 0.17  
Year to date precipitation 1.03 0.74  
Snow  
Snow 0.00 in - - ()
Snow Depth 3.00 in    
Sea Level Pressure  
Sea Level Pressure 30.08 in    
Wind  
Wind Speed 5 mph (SSE)    
Max Wind Speed 12 mph    
Max Gust Speed 13 mph    
Visibility 10 miles    
Events      
T = Trace of Precipitation, MM = Missing Value Source: NWS Daily Summary

Daily Weather History Graph

Daily Weather History Graph

Search for Another Location

Airport or City:

Trip Planner

Search our weather history database for the weather conditions in past years. The results will help you decide how hot, cold, wet, or windy it might be!

Date:

Astronomy

Feb. 11, 2013 Rise Set
Actual Time 7:28 AM MST 5:36 PM MST
Civil Twilight 6:56 AM MST 6:08 PM MST
Nautical Twilight 6:20 AM MST 6:44 PM MST
Astronomical Twilight 5:45 AM MST 7:19 PM MST
Moon 7:45 AM MST (2/11) 7:48 PM MST (2/11)
Length of Visible Light 11h 11m
Length of Day
10h 08m
Waxing Crescent, 3% of the Moon is Illuminated
Feb 11
Waxing Crescent
Feb 17
First Quarter
Feb 25
Full
Mar 4
Last Quarter
Mar 11
New

Hourly Weather History & Observations

Time (MST) Temp. Windchill Dew Point Humidity Pressure Visibility Wind Dir Wind Speed Gust Speed Precip Events Conditions
12:54 AM 3.0 °F -6.4 °F -0.0 °F 87% 30.22 in 10.0 mi ESE 4.6 mph - N/A   Clear
1:54 AM 3.0 °F -9.3 °F -0.0 °F 87% 30.19 in 10.0 mi SE 6.9 mph - N/A   Clear
2:54 AM 1.9 °F -10.6 °F -2.0 °F 83% 30.17 in 10.0 mi SE 6.9 mph - N/A   Clear
3:54 AM 1.0 °F -10.3 °F -4.0 °F 79% 30.14 in 10.0 mi SE 5.8 mph - N/A   Clear
4:54 AM 3.9 °F -9.4 °F -2.0 °F 76% 30.12 in 10.0 mi SE 8.1 mph - N/A   Clear
5:54 AM 3.0 °F -8.0 °F -2.9 °F 76% 30.11 in 10.0 mi ESE 5.8 mph - N/A   Clear
6:54 AM 5.0 °F -6.9 °F -0.9 °F 76% 30.09 in 10.0 mi SE 6.9 mph - N/A   Clear
7:54 AM 5.0 °F -5.6 °F -0.0 °F 80% 30.11 in 10.0 mi ESE 5.8 mph - N/A   Clear
8:54 AM 10.9 °F 2.9 °F 5.0 °F 77% 30.09 in 10.0 mi East 4.6 mph - N/A   Scattered Clouds
9:54 AM 17.1 °F 10.0 °F 8.1 °F 68% 30.07 in 10.0 mi ESE 4.6 mph - N/A   Partly Cloudy
10:54 AM 21.0 °F 16.2 °F 10.9 °F 65% 30.05 in 10.0 mi ESE 3.5 mph - N/A   Clear
11:54 AM 30.0 °F - 12.9 °F 49% 30.02 in 10.0 mi Calm Calm - N/A   Clear
12:54 PM 30.9 °F - 12.9 °F 47% 30.02 in 10.0 mi Calm Calm - N/A   Clear
1:54 PM 34.0 °F - 12.0 °F 40% 30.01 in 10.0 mi Calm Calm - N/A   Clear
2:54 PM 33.1 °F 30.0 °F 19.0 °F 56% 30.01 in 10.0 mi WSW 3.5 mph - N/A   Clear
3:54 PM 30.9 °F 25.2 °F 19.9 °F 64% 30.02 in 10.0 mi WSW 5.8 mph - N/A   Clear
4:54 PM 28.9 °F 21.1 °F 17.1 °F 61% 30.02 in 10.0 mi SW 8.1 mph - N/A   Clear
5:54 PM 24.1 °F 19.7 °F 14.0 °F 65% 30.04 in 10.0 mi SW 3.5 mph - N/A   Clear
6:54 PM 21.9 °F 12.5 °F 12.9 °F 68% 30.06 in 10.0 mi SSW 8.1 mph - N/A   Clear
7:54 PM 21.0 °F 10.6 °F 14.0 °F 74% 30.08 in 10.0 mi SSW 9.2 mph - N/A   Clear
8:54 PM 19.9 °F 12.1 °F 12.9 °F 74% 30.07 in 10.0 mi South 5.8 mph - N/A   Clear
9:54 PM 21.9 °F 15.7 °F 14.0 °F 72% 30.05 in 10.0 mi SSW 4.6 mph - N/A   Clear
10:54 PM 24.1 °F 17.0 °F 14.0 °F 65% 30.04 in 10.0 mi SW 5.8 mph - N/A   Clear
11:54 PM 25.0 °F - 14.0 °F 63% 30.03 in 10.0 mi Calm Calm - N/A   Clear